Location: Newark
(43.0000°N, 1.6781°W)
Time: 07:02:10
(UTC+00:00)

ISS - Visible Passes

Search period start: 02 December 2021 00:00
Search period end: 12 December 2021 00:00
Orbit: 417 x 423 km, 51.6° (Epoch: 02 December)

Date Brightness Start Highest point End Pass type
(mag) Time Alt. Az. Time Alt. Az. Time Alt. Az.
02 Dec -2.1 18:33:17 10° NW 18:35:15 27° NNW 18:35:15 27° NNW visible
03 Dec -2.7 17:46:10 10° NW 17:49:12 29° NNE 17:50:10 25° NE visible
03 Dec -0.5 19:22:51 10° WNW 19:23:11 12° WNW 19:23:11 12° WNW visible
04 Dec -2.3 16:59:00 10° NW 17:01:50 24° NNE 17:04:40 10° ENE visible
04 Dec -3.0 18:35:37 10° WNW 18:38:14 50° NW 18:38:14 50° NW visible
05 Dec -3.7 17:48:25 10° NW 17:51:47 57° NNE 17:53:27 26° E visible
05 Dec -0.4 19:25:48 10° W 19:26:28 13° W 19:26:28 13° W visible
06 Dec -3.2 17:01:16 10° NW 17:04:29 39° NNE 17:07:43 10° E visible
06 Dec -2.2 18:38:12 10° WNW 18:41:17 32° SW 18:41:57 29° SSW visible
07 Dec -3.0 17:50:48 10° WNW 17:54:08 54° SW 17:57:27 10° SE visible
08 Dec -3.7 17:03:31 10° WNW 17:06:56 89° SSW 17:10:19 10° SE visible
08 Dec -0.5 18:41:58 10° WSW 18:43:16 12° SW 18:44:34 10° SSW visible
09 Dec -0.9 17:53:42 10° W 17:56:13 19° SW 17:58:43 10° S visible
10 Dec -1.6 17:06:02 10° WNW 17:09:06 31° SW 17:12:09 10° SSE visible
